Time,TemperatureF,DewpointF,PressureIn,WindDirection,WindDirectionDegrees,WindSpeedMPH,WindSpeedGustMPH,Humidity,HourlyPrecipIn,Conditions,Clouds,dailyrainin,SoftwareType,DateUTC
2013-02-23 00:00:00,14.6,10.9,29.98,NW,304,0.0,0.0,85,0.00,,,0.00,WUHU216DAVISVP2,2013-02-23 06:00:00,
2013-02-23 00:05:00,14.6,10.9,29.98,WNW,303,0.0,0.0,85,0.00,,,0.00,WUHU216DAVISVP2,2013-02-23 06:05:00,
2013-02-23 00:10:00,14.6,10.9,29.98,WNW,303,0.0,0.0,85,0.00,,,0.00,WUHU216DAVISVP2,2013-02-23 06:10:00,
2013-02-23 00:15:00,14.5,10.8,29.98,NW,304,0.0,0.0,85,0.00,,,0.00,WUHU216DAVISVP2,2013-02-23 06:15:00,
2013-02-23 00:20:00,14.5,10.8,29.98,NW,304,0.0,0.0,85,0.00,,,0.00,WUHU216DAVISVP2,2013-02-23 06:20:00,
2013-02-23 00:26:00,14.5,10.8,29.98,WNW,303,0.0,0.0,85,0.00,,,0.00,WUHU216DAVISVP2,2013-02-23 06:26:00,
2013-02-23 00:31:00,14.5,10.8,29.98,NW,304,0.0,0.0,85,0.00,,,0.00,WUHU216DAVISVP2,2013-02-23 06:31:00,
2013-02-23 00:36:00,14.6,10.9,29.98,NW,304,0.0,0.0,85,0.00,,,0.00,WUHU216DAVISVP2,2013-02-23 06:36:00,
2013-02-23 00:41:00,14.6,10.9,29.98,WNW,303,0.0,0.0,85,0.00,,,0.00,WUHU216DAVISVP2,2013-02-23 06:41:00,
2013-02-23 00:46:00,14.7,11.0,29.98,WNW,303,0.0,0.0,85,0.00,,,0.00,WUHU216DAVISVP2,2013-02-23 06:46:00,
2013-02-23 00:51:00,14.8,11.1,29.97,NW,304,0.0,0.0,85,0.00,,,0.00,WUHU216DAVISVP2,2013-02-23 06:51:00,
2013-02-23 00:56:00,14.8,11.1,29.97,NW,304,0.0,0.0,85,0.00,,,0.00,WUHU216DAVISVP2,2013-02-23 06:56:00,
2013-02-23 01:01:00,14.8,11.1,29.97,WNW,303,0.0,0.0,85,0.00,,,0.00,WUHU216DAVISVP2,2013-02-23 07:01:00,
2013-02-23 01:06:00,14.7,11.0,29.97,NW,304,0.0,0.0,85,0.00,,,0.00,WUHU216DAVISVP2,2013-02-23 07:06:00,
2013-02-23 01:11:00,14.7,11.0,29.97,WNW,303,0.0,0.0,85,0.00,,,0.00,WUHU216DAVISVP2,2013-02-23 07:11:00,
2013-02-23 01:16:00,14.7,11.0,29.97,WNW,303,0.0,0.0,85,0.00,,,0.00,WUHU216DAVISVP2,2013-02-23 07:16:00,
2013-02-23 01:21:00,14.8,11.1,29.97,WNW,303,0.0,0.0,85,0.00,,,0.00,WUHU216DAVISVP2,2013-02-23 07:21:00,
2013-02-23 01:26:00,14.8,11.1,29.98,NW,304,0.0,0.0,85,0.00,,,0.00,WUHU216DAVISVP2,2013-02-23 07:26:00,
2013-02-23 01:31:00,14.8,11.1,29.97,NW,304,0.0,0.0,85,0.00,,,0.00,WUHU216DAVISVP2,2013-02-23 07:31:00,
2013-02-23 01:36:00,14.8,11.1,29.97,WNW,303,0.0,0.0,85,0.00,,,0.00,WUHU216DAVISVP2,2013-02-23 07:36:00,
2013-02-23 01:41:00,14.8,11.1,29.97,WNW,303,0.0,0.0,85,0.00,,,0.00,WUHU216DAVISVP2,2013-02-23 07:41:00,
2013-02-23 01:46:00,14.9,11.2,29.97,NW,304,0.0,0.0,85,0.00,,,0.00,WUHU216DAVISVP2,2013-02-23 07:46:00,
2013-02-23 01:51:00,14.9,11.2,29.97,WNW,303,0.0,0.0,85,0.00,,,0.00,WUHU216DAVISVP2,2013-02-23 07:51:00,
2013-02-23 01:56:00,14.9,11.2,29.97,NW,304,0.0,0.0,85,0.00,,,0.00,WUHU216DAVISVP2,2013-02-23 07:56:00,
2013-02-23 02:01:00,14.9,11.2,29.97,NW,304,0.0,0.0,85,0.00,,,0.00,WUHU216DAVISVP2,2013-02-23 08:01:00,
2013-02-23 02:06:00,14.9,11.2,29.97,NW,304,0.0,0.0,85,0.00,,,0.00,WUHU216DAVISVP2,2013-02-23 08:06:00,
2013-02-23 02:11:00,14.8,11.1,29.97,WNW,303,0.0,0.0,85,0.00,,,0.00,WUHU216DAVISVP2,2013-02-23 08:11:00,
2013-02-23 02:16:00,14.7,11.0,29.97,WNW,303,0.0,0.0,85,0.00,,,0.00,WUHU216DAVISVP2,2013-02-23 08:16:00,
2013-02-23 02:21:00,14.6,10.9,29.97,NW,304,0.0,0.0,85,0.00,,,0.00,WUHU216DAVISVP2,2013-02-23 08:21:00,
2013-02-23 02:26:00,14.7,11.0,29.96,WNW,303,0.0,0.0,85,0.00,,,0.00,WUHU216DAVISVP2,2013-02-23 08:26:00,
2013-02-23 02:31:00,14.7,11.0,29.96,WNW,303,0.0,0.0,85,0.00,,,0.00,WUHU216DAVISVP2,2013-02-23 08:31:00,
2013-02-23 02:36:00,14.6,10.9,29.96,WNW,303,0.0,0.0,85,0.00,,,0.00,WUHU216DAVISVP2,2013-02-23 08:36:00,
2013-02-23 02:41:00,14.5,10.8,29.96,WNW,303,0.0,0.0,85,0.00,,,0.00,WUHU216DAVISVP2,2013-02-23 08:41:00,
2013-02-23 02:46:00,14.5,10.8,29.96,WNW,303,0.0,0.0,85,0.00,,,0.00,WUHU216DAVISVP2,2013-02-23 08:46:00,
2013-02-23 02:51:00,14.4,10.7,29.96,NW,304,0.0,0.0,85,0.00,,,0.00,WUHU216DAVISVP2,2013-02-23 08:51:00,
2013-02-23 02:56:00,14.3,10.6,29.96,WNW,303,0.0,0.0,85,0.00,,,0.00,WUHU216DAVISVP2,2013-02-23 08:56:00,
2013-02-23 03:01:00,14.3,10.6,29.96,WNW,303,0.0,0.0,85,0.00,,,0.00,WUHU216DAVISVP2,2013-02-23 09:01:00,
2013-02-23 03:06:00,14.2,10.5,29.95,NW,304,0.0,0.0,85,0.00,,,0.00,WUHU216DAVISVP2,2013-02-23 09:06:00,
2013-02-23 03:11:00,14.1,10.4,29.95,WNW,303,0.0,0.0,85,0.00,,,0.00,WUHU216DAVISVP2,2013-02-23 09:11:00,
2013-02-23 03:16:00,14.2,10.5,29.95,WNW,303,0.0,0.0,85,0.00,,,0.00,WUHU216DAVISVP2,2013-02-23 09:16:00,
2013-02-23 03:21:00,14.3,10.6,29.95,NW,304,0.0,0.0,85,0.00,,,0.00,WUHU216DAVISVP2,2013-02-23 09:21:00,
2013-02-23 03:26:00,14.2,10.5,29.95,NW,304,0.0,0.0,85,0.00,,,0.00,WUHU216DAVISVP2,2013-02-23 09:26:00,
2013-02-23 03:31:00,14.1,10.4,29.95,WNW,303,0.0,0.0,85,0.00,,,0.00,WUHU216DAVISVP2,2013-02-23 09:31:00,
2013-02-23 03:36:00,14.2,10.5,29.95,WNW,303,0.0,0.0,85,0.00,,,0.00,WUHU216DAVISVP2,2013-02-23 09:36:00,
2013-02-23 03:41:00,14.2,10.5,29.95,WNW,303,0.0,0.0,85,0.00,,,0.00,WUHU216DAVISVP2,2013-02-23 09:41:00,
2013-02-23 03:46:00,14.3,10.6,29.95,WNW,303,0.0,0.0,85,0.00,,,0.00,WUHU216DAVISVP2,2013-02-23 09:46:00,
2013-02-23 03:51:00,14.3,10.6,29.95,NW,304,0.0,0.0,85,0.00,,,0.00,WUHU216DAVISVP2,2013-02-23 09:51:00,
2013-02-23 03:56:00,14.3,10.6,29.95,NW,304,0.0,0.0,85,0.00,,,0.00,WUHU216DAVISVP2,2013-02-23 09:56:00,
2013-02-23 04:01:00,14.3,10.6,29.94,WNW,303,0.0,0.0,85,0.00,,,0.00,WUHU216DAVISVP2,2013-02-23 10:01:00,
2013-02-23 04:06:00,14.2,10.5,29.94,WNW,303,0.0,0.0,85,0.00,,,0.00,WUHU216DAVISVP2,2013-02-23 10:06:00,
2013-02-23 04:11:00,14.1,10.4,29.94,NW,304,0.0,0.0,85,0.00,,,0.00,WUHU216DAVISVP2,2013-02-23 10:11:00,
2013-02-23 04:16:00,14.0,10.3,29.95,WNW,303,0.0,0.0,85,0.00,,,0.00,WUHU216DAVISVP2,2013-02-23 10:16:00,
2013-02-23 04:21:00,14.1,10.4,29.94,NW,304,0.0,0.0,85,0.00,,,0.00,WUHU216DAVISVP2,2013-02-23 10:21:00,
2013-02-23 04:26:00,14.2,10.5,29.94,NW,304,0.0,0.0,85,0.00,,,0.00,WUHU216DAVISVP2,2013-02-23 10:26:00,
2013-02-23 04:31:00,14.2,10.5,29.94,WNW,303,0.0,0.0,85,0.00,,,0.00,WUHU216DAVISVP2,2013-02-23 10:31:00,
2013-02-23 04:36:00,14.1,10.4,29.94,NW,304,0.0,0.0,85,0.00,,,0.00,WUHU216DAVISVP2,2013-02-23 10:36:00,
2013-02-23 04:41:00,14.0,10.3,29.94,NW,304,0.0,0.0,85,0.00,,,0.00,WUHU216DAVISVP2,2013-02-23 10:41:00,
2013-02-23 04:46:00,13.9,9.9,29.94,NW,304,0.0,0.0,84,0.00,,,0.00,WUHU216DAVISVP2,2013-02-23 10:46:00,
2013-02-23 04:51:00,13.7,9.7,29.94,NW,304,0.0,0.0,84,0.00,,,0.00,WUHU216DAVISVP2,2013-02-23 10:51:00,
2013-02-23 04:56:00,13.6,9.6,29.94,NW,304,0.0,0.0,84,0.00,,,0.00,WUHU216DAVISVP2,2013-02-23 10:56:00,
2013-02-23 05:01:00,13.6,9.6,29.94,NW,304,0.0,0.0,84,0.00,,,0.00,WUHU216DAVISVP2,2013-02-23 11:01:00,
2013-02-23 05:06:00,13.5,9.5,29.94,NW,304,0.0,0.0,84,0.00,,,0.00,WUHU216DAVISVP2,2013-02-23 11:06:00,
2013-02-23 05:11:00,13.4,9.4,29.94,NW,304,0.0,0.0,84,0.00,,,0.00,WUHU216DAVISVP2,2013-02-23 11:11:00,
2013-02-23 05:16:00,13.4,9.4,29.94,WNW,303,0.0,0.0,84,0.00,,,0.00,WUHU216DAVISVP2,2013-02-23 11:16:00,
2013-02-23 05:21:00,13.3,9.3,29.94,WNW,303,0.0,0.0,84,0.00,,,0.00,WUHU216DAVISVP2,2013-02-23 11:21:00,
2013-02-23 05:26:00,13.3,9.3,29.94,NW,304,0.0,0.0,84,0.00,,,0.00,WUHU216DAVISVP2,2013-02-23 11:26:00,
2013-02-23 05:31:00,13.3,9.3,29.94,WNW,303,0.0,0.0,84,0.00,,,0.00,WUHU216DAVISVP2,2013-02-23 11:31:00,
2013-02-23 05:36:00,13.3,9.3,29.94,WNW,303,0.0,0.0,84,0.00,,,0.00,WUHU216DAVISVP2,2013-02-23 11:36:00,
2013-02-23 05:41:00,13.3,9.3,29.94,WNW,303,0.0,0.0,84,0.00,,,0.00,WUHU216DAVISVP2,2013-02-23 11:41:00,
2013-02-23 05:46:00,13.2,9.2,29.94,NW,304,0.0,0.0,84,0.00,,,0.00,WUHU216DAVISVP2,2013-02-23 11:46:00,
2013-02-23 05:51:00,13.1,9.1,29.94,NW,304,0.0,0.0,84,0.00,,,0.00,WUHU216DAVISVP2,2013-02-23 11:51:00,
2013-02-23 05:56:00,13.0,9.1,29.94,NW,304,0.0,0.0,84,0.00,,,0.00,WUHU216DAVISVP2,2013-02-23 11:56:00,
2013-02-23 06:01:00,12.8,8.9,29.94,NW,304,0.0,0.0,84,0.00,,,0.00,WUHU216DAVISVP2,2013-02-23 12:01:00,
2013-02-23 06:06:00,12.7,8.8,29.94,WNW,303,0.0,0.0,84,0.00,,,0.00,WUHU216DAVISVP2,2013-02-23 12:06:00,
2013-02-23 06:11:00,12.5,8.6,29.94,NW,304,0.0,0.0,84,0.00,,,0.00,WUHU216DAVISVP2,2013-02-23 12:11:00,
2013-02-23 06:16:00,12.4,8.5,29.94,WNW,303,0.0,0.0,84,0.00,,,0.00,WUHU216DAVISVP2,2013-02-23 12:16:00,
2013-02-23 06:21:00,12.2,8.3,29.94,WNW,303,0.0,0.0,84,0.00,,,0.00,WUHU216DAVISVP2,2013-02-23 12:21:00,
2013-02-23 06:26:00,12.1,8.2,29.94,NW,304,0.0,0.0,84,0.00,,,0.00,WUHU216DAVISVP2,2013-02-23 12:26:00,
2013-02-23 06:31:00,11.8,7.9,29.94,WNW,303,0.0,0.0,84,0.00,,,0.00,WUHU216DAVISVP2,2013-02-23 12:31:00,
2013-02-23 06:36:00,11.6,7.4,29.94,WNW,303,0.0,0.0,83,0.00,,,0.00,WUHU216DAVISVP2,2013-02-23 12:36:00,
2013-02-23 06:41:00,11.3,7.1,29.94,WNW,303,0.0,0.0,83,0.00,,,0.00,WUHU216DAVISVP2,2013-02-23 12:41:00,
2013-02-23 06:46:00,11.2,7.0,29.94,WNW,303,0.0,0.0,83,0.00,,,0.00,WUHU216DAVISVP2,2013-02-23 12:46:00,
2013-02-23 06:51:00,11.2,7.3,29.94,WNW,303,0.0,0.0,84,0.00,,,0.00,WUHU216DAVISVP2,2013-02-23 12:51:00,
2013-02-23 06:56:00,11.2,7.3,29.93,WNW,303,0.0,0.0,84,0.00,,,0.00,WUHU216DAVISVP2,2013-02-23 12:56:00,
2013-02-23 07:01:00,11.0,6.8,29.93,WNW,303,0.0,0.0,83,0.00,,,0.00,WUHU216DAVISVP2,2013-02-23 13:01:00,
2013-02-23 07:06:00,11.0,6.8,29.93,WNW,303,0.0,0.0,83,0.00,,,0.00,WUHU216DAVISVP2,2013-02-23 13:06:00,
2013-02-23 07:11:00,11.0,6.8,29.93,WNW,303,0.0,0.0,83,0.00,,,0.00,WUHU216DAVISVP2,2013-02-23 13:11:00,
2013-02-23 07:16:00,11.0,6.8,29.93,WNW,302,0.0,0.0,83,0.00,,,0.00,WUHU216DAVISVP2,2013-02-23 13:16:00,
2013-02-23 07:21:00,11.1,6.9,29.93,WNW,302,0.0,0.0,83,0.00,,,0.00,WUHU216DAVISVP2,2013-02-23 13:21:00,
2013-02-23 07:26:00,11.1,7.2,29.93,WNW,302,0.0,0.0,84,0.00,,,0.00,WUHU216DAVISVP2,2013-02-23 13:26:00,
2013-02-23 07:31:00,11.1,6.9,29.93,WNW,302,0.0,0.0,83,0.00,,,0.00,WUHU216DAVISVP2,2013-02-23 13:31:00,
2013-02-23 07:36:00,11.0,6.8,29.93,WNW,302,0.0,0.0,83,0.00,,,0.00,WUHU216DAVISVP2,2013-02-23 13:36:00,
2013-02-23 07:41:00,11.0,6.8,29.93,WNW,302,0.0,0.0,83,0.00,,,0.00,WUHU216DAVISVP2,2013-02-23 13:41:00,
2013-02-23 07:46:00,10.9,6.7,29.93,WNW,302,0.0,0.0,83,0.00,,,0.00,WUHU216DAVISVP2,2013-02-23 13:46:00,
2013-02-23 07:51:00,10.9,6.7,29.94,WNW,302,0.0,0.0,83,0.00,,,0.00,WUHU216DAVISVP2,2013-02-23 13:51:00,
2013-02-23 07:56:00,10.8,6.6,29.94,WNW,302,0.0,0.0,83,0.00,,,0.00,WUHU216DAVISVP2,2013-02-23 13:56:00,
2013-02-23 08:01:00,10.7,8.8,29.95,WNW,302,0.0,0.0,92,0.00,,,0.00,WUHU216DAVISVP2,2013-02-23 14:01:00,
2013-02-23 08:06:00,10.5,6.3,29.95,WNW,302,0.0,0.0,83,0.00,,,0.00,WUHU216DAVISVP2,2013-02-23 14:06:00,
2013-02-23 08:11:00,10.3,6.1,29.95,WNW,302,0.0,0.0,83,0.00,,,0.00,WUHU216DAVISVP2,2013-02-23 14:11:00,
2013-02-23 08:16:00,9.9,5.8,29.94,WNW,302,0.0,0.0,83,0.00,,,0.00,WUHU216DAVISVP2,2013-02-23 14:16:00,
2013-02-23 08:21:00,9.8,5.4,29.95,WNW,302,0.0,0.0,82,0.00,,,0.00,WUHU216DAVISVP2,2013-02-23 14:21:00,
2013-02-23 08:26:00,9.5,5.1,29.95,WNW,302,0.0,0.0,82,0.00,,,0.00,WUHU216DAVISVP2,2013-02-23 14:26:00,
2013-02-23 08:31:00,9.2,4.8,29.95,WNW,302,0.0,0.0,82,0.00,,,0.00,WUHU216DAVISVP2,2013-02-23 14:31:00,
2013-02-23 08:36:00,9.0,4.6,29.95,WNW,302,0.0,0.0,82,0.00,,,0.00,WUHU216DAVISVP2,2013-02-23 14:36:00,
2013-02-23 08:41:00,9.1,5.0,29.95,WNW,302,0.0,0.0,83,0.00,,,0.00,WUHU216DAVISVP2,2013-02-23 14:41:00,
2013-02-23 08:46:00,9.4,5.3,29.95,WNW,302,0.0,0.0,83,0.00,,,0.00,WUHU216DAVISVP2,2013-02-23 14:46:00,
2013-02-23 08:51:00,9.6,5.5,29.95,WNW,302,0.0,0.0,83,0.00,,,0.00,WUHU216DAVISVP2,2013-02-23 14:51:00,
2013-02-23 08:56:00,9.9,5.8,29.95,WNW,302,0.0,0.0,83,0.00,,,0.00,WUHU216DAVISVP2,2013-02-23 14:56:00,
2013-02-23 09:01:00,10.4,6.2,29.95,WNW,302,0.0,0.0,83,0.00,,,0.00,WUHU216DAVISVP2,2013-02-23 15:01:00,
2013-02-23 09:07:00,10.8,6.6,29.95,WNW,302,0.0,0.0,83,0.00,,,0.00,WUHU216DAVISVP2,2013-02-23 15:07:00,
2013-02-23 09:12:00,11.2,7.3,29.96,WNW,302,0.0,0.0,84,0.00,,,0.00,WUHU216DAVISVP2,2013-02-23 15:12:00,
2013-02-23 09:17:00,11.6,7.4,29.96,WNW,302,0.0,0.0,83,0.00,,,0.00,WUHU216DAVISVP2,2013-02-23 15:17:00,
2013-02-23 09:22:00,11.9,8.0,29.96,WNW,302,0.0,0.0,84,0.00,,,0.00,WUHU216DAVISVP2,2013-02-23 15:22:00,
2013-02-23 09:27:00,12.1,7.9,29.96,WNW,302,0.0,0.0,83,0.00,,,0.00,WUHU216DAVISVP2,2013-02-23 15:27:00,
2013-02-23 09:32:00,12.3,8.1,29.96,WNW,302,0.0,0.0,83,0.00,,,0.00,WUHU216DAVISVP2,2013-02-23 15:32:00,
2013-02-23 09:37:00,12.6,8.7,29.96,WNW,302,0.0,0.0,84,0.00,,,0.00,WUHU216DAVISVP2,2013-02-23 15:37:00,
2013-02-23 09:42:00,12.9,9.0,29.95,WNW,302,0.0,0.0,84,0.00,,,0.00,WUHU216DAVISVP2,2013-02-23 15:42:00,
2013-02-23 09:47:00,13.2,9.2,29.95,WNW,302,0.0,0.0,84,0.00,,,0.00,WUHU216DAVISVP2,2013-02-23 15:47:00,
2013-02-23 09:52:00,13.3,9.3,29.95,WNW,302,0.0,0.0,84,0.00,,,0.00,WUHU216DAVISVP2,2013-02-23 15:52:00,
2013-02-23 09:57:00,13.5,9.5,29.95,WNW,302,0.0,0.0,84,0.00,,,0.00,WUHU216DAVISVP2,2013-02-23 15:57:00,
2013-02-23 10:02:00,13.6,9.6,29.95,WNW,302,0.0,0.0,84,0.00,,,0.00,WUHU216DAVISVP2,2013-02-23 16:02:00,
2013-02-23 10:07:00,14.5,10.5,29.95,WNW,302,0.0,0.0,84,0.00,,,0.00,WUHU216DAVISVP2,2013-02-23 16:07:00,
2013-02-23 10:12:00,14.8,10.8,29.95,WNW,286,0.0,0.0,84,0.00,,,0.00,WUHU216DAVISVP2,2013-02-23 16:12:00,
2013-02-23 10:17:00,15.2,11.2,29.95,WNW,286,0.0,0.0,84,0.00,,,0.00,WUHU216DAVISVP2,2013-02-23 16:17:00,
2013-02-23 10:22:00,15.7,12.0,29.95,WNW,284,0.0,0.0,85,0.00,,,0.00,WUHU216DAVISVP2,2013-02-23 16:22:00,
2013-02-23 10:27:00,15.9,12.2,29.95,WNW,285,0.0,0.0,85,0.00,,,0.00,WUHU216DAVISVP2,2013-02-23 16:27:00,
2013-02-23 10:32:00,16.2,12.5,29.95,SSW,198,0.0,0.0,85,0.00,,,0.00,WUHU216DAVISVP2,2013-02-23 16:32:00,
2013-02-23 10:37:00,15.9,11.9,29.95,SSW,198,0.0,0.0,84,0.00,,,0.00,WUHU216DAVISVP2,2013-02-23 16:37:00,
2013-02-23 10:42:00,15.8,11.8,29.95,SSW,198,0.0,4.0,84,0.00,,,0.00,WUHU216DAVISVP2,2013-02-23 16:42:00,
2013-02-23 10:47:00,16.4,12.7,29.95,SSW,198,0.0,4.0,85,0.00,,,0.00,WUHU216DAVISVP2,2013-02-23 16:47:00,
2013-02-23 10:52:00,17.1,13.3,29.95,SSW,198,0.0,3.0,85,0.00,,,0.00,WUHU216DAVISVP2,2013-02-23 16:52:00,
2013-02-23 10:57:00,17.7,13.9,29.95,SSW,198,0.0,4.0,85,0.00,,,0.00,WUHU216DAVISVP2,2013-02-23 16:57:00,
2013-02-23 11:02:00,18.0,14.2,29.95,SSW,198,2.0,4.0,85,0.00,,,0.00,WUHU216DAVISVP2,2013-02-23 17:02:00,
2013-02-23 11:07:00,18.4,14.6,29.95,SSW,196,4.0,5.0,85,0.00,,,0.00,WUHU216DAVISVP2,2013-02-23 17:07:00,
2013-02-23 11:12:00,18.7,14.9,29.95,SSW,198,3.0,5.0,85,0.00,,,0.00,WUHU216DAVISVP2,2013-02-23 17:12:00,
2013-02-23 11:17:00,18.9,15.1,29.95,SSW,196,0.0,5.0,85,0.00,,,0.00,WUHU216DAVISVP2,2013-02-23 17:17:00,
2013-02-23 11:22:00,19.1,15.3,29.95,SSW,197,3.0,4.0,85,0.00,,,0.00,WUHU216DAVISVP2,2013-02-23 17:22:00,
2013-02-23 11:27:00,19.3,15.5,29.95,SSW,197,1.0,4.0,85,0.00,,,0.00,WUHU216DAVISVP2,2013-02-23 17:27:00,
2013-02-23 11:32:00,19.7,15.9,29.95,SSW,196,3.0,4.0,85,0.00,,,0.00,WUHU216DAVISVP2,2013-02-23 17:32:00,
2013-02-23 11:37:00,19.9,16.1,29.95,SSW,197,0.0,5.0,85,0.00,,,0.00,WUHU216DAVISVP2,2013-02-23 17:37:00,
2013-02-23 11:42:00,19.7,15.9,29.95,SSW,198,3.0,5.0,85,0.00,,,0.00,WUHU216DAVISVP2,2013-02-23 17:42:00,
2013-02-23 11:47:00,20.1,16.3,29.95,SSW,198,3.0,5.0,85,0.00,,,0.00,WUHU216DAVISVP2,2013-02-23 17:47:00,
2013-02-23 11:52:00,20.4,16.6,29.95,SSW,195,0.0,5.0,85,0.00,,,0.00,WUHU216DAVISVP2,2013-02-23 17:52:00,
2013-02-23 11:57:00,20.8,17.0,29.95,SSW,196,0.0,5.0,85,0.00,,,0.00,WUHU216DAVISVP2,2013-02-23 17:57:00,
2013-02-23 12:02:00,21.1,17.3,29.95,SSW,196,0.0,5.0,85,0.00,,,0.00,WUHU216DAVISVP2,2013-02-23 18:02:00,
2013-02-23 12:07:00,20.9,16.8,29.95,SSW,195,0.0,5.0,84,0.00,,,0.00,WUHU216DAVISVP2,2013-02-23 18:07:00,
2013-02-23 12:12:00,21.0,16.9,29.95,SSW,195,0.0,5.0,84,0.00,,,0.00,WUHU216DAVISVP2,2013-02-23 18:12:00,
2013-02-23 12:17:00,21.6,17.5,29.94,SSW,196,0.0,5.0,84,0.00,,,0.00,WUHU216DAVISVP2,2013-02-23 18:17:00,
2013-02-23 12:22:00,21.6,17.2,29.94,SSW,196,4.0,5.0,83,0.00,,,0.00,WUHU216DAVISVP2,2013-02-23 18:22:00,
2013-02-23 12:27:00,21.7,17.0,29.94,SSW,195,0.0,5.0,82,0.00,,,0.00,WUHU216DAVISVP2,2013-02-23 18:27:00,
2013-02-23 12:32:00,22.4,17.7,29.94,SSW,196,0.0,7.0,82,0.00,,,0.00,WUHU216DAVISVP2,2013-02-23 18:32:00,
2013-02-23 12:37:00,23.1,18.1,29.94,SSW,192,0.0,7.0,81,0.00,,,0.00,WUHU216DAVISVP2,2013-02-23 18:37:00,
2013-02-23 12:42:00,22.9,17.1,29.94,SSW,194,0.0,6.0,78,0.00,,,0.00,WUHU216DAVISVP2,2013-02-23 18:42:00,
2013-02-23 12:47:00,22.7,16.6,29.94,South,191,0.0,6.0,77,0.00,,,0.00,WUHU216DAVISVP2,2013-02-23 18:47:00,
2013-02-23 12:52:00,22.4,16.3,29.94,South,181,0.0,6.0,77,0.00,,,0.00,WUHU216DAVISVP2,2013-02-23 18:52:00,
2013-02-23 12:57:00,22.7,16.6,29.93,South,175,5.0,6.0,77,0.00,,,0.00,WUHU216DAVISVP2,2013-02-23 18:57:00,
2013-02-23 13:02:00,22.7,16.3,29.93,South,175,0.0,5.0,76,0.00,,,0.00,WUHU216DAVISVP2,2013-02-23 19:02:00,
2013-02-23 13:07:00,22.8,16.1,29.93,South,180,2.0,6.0,75,0.00,,,0.00,WUHU216DAVISVP2,2013-02-23 19:07:00,
2013-02-23 13:12:00,22.4,15.4,29.93,South,177,0.0,6.0,74,0.00,,,0.00,WUHU216DAVISVP2,2013-02-23 19:12:00,
2013-02-23 13:17:00,22.7,15.4,29.93,South,176,2.0,5.0,73,0.00,,,0.00,WUHU216DAVISVP2,2013-02-23 19:17:00,
2013-02-23 13:22:00,23.0,15.4,29.93,South,178,0.0,4.0,72,0.00,,,0.00,WUHU216DAVISVP2,2013-02-23 19:22:00,
2013-02-23 13:27:00,22.9,14.9,29.93,South,172,0.0,5.0,71,0.00,,,0.00,WUHU216DAVISVP2,2013-02-23 19:27:00,
2013-02-23 13:32:00,22.7,14.8,29.93,South,172,0.0,5.0,71,0.00,,,0.00,WUHU216DAVISVP2,2013-02-23 19:32:00,
2013-02-23 13:37:00,23.0,15.4,29.93,South,172,0.0,4.0,72,0.00,,,0.00,WUHU216DAVISVP2,2013-02-23 19:37:00,
2013-02-23 13:42:00,23.5,15.8,29.93,SSE,167,0.0,6.0,72,0.00,,,0.00,WUHU216DAVISVP2,2013-02-23 19:42:00,
2013-02-23 13:47:00,22.9,14.9,29.93,SSE,166,0.0,6.0,71,0.00,,,0.00,WUHU216DAVISVP2,2013-02-23 19:47:00,
2013-02-23 13:52:00,22.8,15.2,29.93,SSE,166,2.0,5.0,72,0.00,,,0.00,WUHU216DAVISVP2,2013-02-23 19:52:00,
2013-02-23 13:57:00,22.7,15.4,29.93,South,182,0.0,6.0,73,0.00,,,0.00,WUHU216DAVISVP2,2013-02-23 19:57:00,
2013-02-23 14:02:00,22.7,15.4,29.93,SSE,160,2.0,6.0,73,0.00,,,0.00,WUHU216DAVISVP2,2013-02-23 20:02:00,
2013-02-23 14:07:00,22.7,15.4,29.93,South,173,0.0,6.0,73,0.00,,,0.00,WUHU216DAVISVP2,2013-02-23 20:07:00,
2013-02-23 14:12:00,22.4,15.1,29.92,SSE,163,0.0,6.0,73,0.00,,,0.00,WUHU216DAVISVP2,2013-02-23 20:12:00,
2013-02-23 14:17:00,22.3,15.0,29.92,South,179,0.0,7.0,73,0.00,,,0.00,WUHU216DAVISVP2,2013-02-23 20:17:00,
2013-02-23 14:22:00,22.5,15.5,29.92,South,181,3.0,7.0,74,0.00,,,0.00,WUHU216DAVISVP2,2013-02-23 20:22:00,
2013-02-23 14:27:00,22.9,15.9,29.92,South,178,0.0,6.0,74,0.00,,,0.00,WUHU216DAVISVP2,2013-02-23 20:27:00,
2013-02-23 14:32:00,23.1,15.5,29.92,South,178,4.0,6.0,72,0.00,,,0.00,WUHU216DAVISVP2,2013-02-23 20:32:00,
2013-02-23 14:37:00,22.9,15.3,29.92,South,180,5.0,7.0,72,0.00,,,0.00,WUHU216DAVISVP2,2013-02-23 20:37:00,
2013-02-23 14:42:00,22.8,15.2,29.92,SSW,194,0.0,7.0,72,0.00,,,0.00,WUHU216DAVISVP2,2013-02-23 20:42:00,
2013-02-23 14:47:00,22.9,15.3,29.92,SSW,194,0.0,7.0,72,0.00,,,0.00,WUHU216DAVISVP2,2013-02-23 20:47:00,
2013-02-23 14:52:00,23.1,15.5,29.92,SSE,163,4.0,6.0,72,0.00,,,0.00,WUHU216DAVISVP2,2013-02-23 20:52:00,
2013-02-23 14:57:00,23.0,15.4,29.92,South,180,0.0,7.0,72,0.00,,,0.00,WUHU216DAVISVP2,2013-02-23 20:57:00,
2013-02-23 15:02:00,22.7,15.4,29.92,South,190,0.0,7.0,73,0.00,,,0.00,WUHU216DAVISVP2,2013-02-23 21:02:00,
2013-02-23 15:07:00,22.5,14.9,29.92,South,169,5.0,7.0,72,0.00,,,0.00,WUHU216DAVISVP2,2013-02-23 21:07:00,
2013-02-23 15:12:00,22.3,15.0,29.92,South,175,0.0,7.0,73,0.00,,,0.00,WUHU216DAVISVP2,2013-02-23 21:12:00,
2013-02-23 15:17:00,22.5,15.5,29.92,South,183,0.0,7.0,74,0.00,,,0.00,WUHU216DAVISVP2,2013-02-23 21:17:00,
2013-02-23 15:22:00,22.7,15.4,29.92,South,173,0.0,5.0,73,0.00,,,0.00,WUHU216DAVISVP2,2013-02-23 21:22:00,
2013-02-23 15:27:00,23.0,15.7,29.92,South,181,2.0,5.0,73,0.00,,,0.00,WUHU216DAVISVP2,2013-02-23 21:27:00,
2013-02-23 15:32:00,23.0,15.7,29.93,South,190,0.0,5.0,73,0.00,,,0.00,WUHU216DAVISVP2,2013-02-23 21:32:00,
2013-02-23 15:37:00,22.6,15.3,29.93,South,191,3.0,6.0,73,0.00,,,0.00,WUHU216DAVISVP2,2013-02-23 21:37:00,
2013-02-23 15:42:00,22.2,15.2,29.93,South,184,0.0,6.0,74,0.00,,,0.00,WUHU216DAVISVP2,2013-02-23 21:42:00,
2013-02-23 15:47:00,21.9,14.9,29.92,South,183,0.0,4.0,74,0.00,,,0.00,WUHU216DAVISVP2,2013-02-23 21:47:00,
2013-02-23 15:52:00,21.8,14.8,29.92,South,186,0.0,5.0,74,0.00,,,0.00,WUHU216DAVISVP2,2013-02-23 21:52:00,
2013-02-23 15:57:00,21.8,15.1,29.93,South,186,0.0,5.0,75,0.00,,,0.00,WUHU216DAVISVP2,2013-02-23 21:57:00,
2013-02-23 16:02:00,21.7,15.0,29.93,South,185,0.0,2.0,75,0.00,,,0.00,WUHU216DAVISVP2,2013-02-23 22:02:00,
2013-02-23 16:07:00,21.5,14.8,29.93,South,184,0.0,2.0,75,0.00,,,0.00,WUHU216DAVISVP2,2013-02-23 22:07:00,
2013-02-23 16:12:00,21.1,14.4,29.93,South,182,0.0,4.0,75,0.00,,,0.00,WUHU216DAVISVP2,2013-02-23 22:12:00,
2013-02-23 16:17:00,20.8,14.5,29.93,South,180,0.0,4.0,76,0.00,,,0.00,WUHU216DAVISVP2,2013-02-23 22:17:00,
2013-02-23 16:22:00,20.9,14.5,29.93,South,180,0.0,5.0,76,0.00,,,0.00,WUHU216DAVISVP2,2013-02-23 22:22:00,
2013-02-23 16:27:00,20.8,14.5,29.93,South,180,0.0,5.0,76,0.00,,,0.00,WUHU216DAVISVP2,2013-02-23 22:27:00,
2013-02-23 16:32:00,21.0,14.6,29.93,South,180,0.0,4.0,76,0.00,,,0.00,WUHU216DAVISVP2,2013-02-23 22:32:00,
2013-02-23 16:37:00,21.1,14.7,29.93,South,180,1.0,4.0,76,0.00,,,0.00,WUHU216DAVISVP2,2013-02-23 22:37:00,
2013-02-23 16:42:00,21.0,14.3,29.94,South,179,0.0,4.0,75,0.00,,,0.00,WUHU216DAVISVP2,2013-02-23 22:42:00,
2013-02-23 16:47:00,20.8,14.5,29.94,South,181,0.0,4.0,76,0.00,,,0.00,WUHU216DAVISVP2,2013-02-23 22:47:00,
2013-02-23 16:52:00,20.9,14.5,29.94,South,180,0.0,3.0,76,0.00,,,0.00,WUHU216DAVISVP2,2013-02-23 22:52:00,
2013-02-23 16:57:00,20.7,14.4,29.94,South,180,1.0,3.0,76,0.00,,,0.00,WUHU216DAVISVP2,2013-02-23 22:57:00,
2013-02-23 17:02:00,20.2,13.6,29.94,South,181,0.0,3.0,75,0.00,,,0.00,WUHU216DAVISVP2,2013-02-23 23:02:00,
2013-02-23 17:07:00,19.7,13.4,29.93,South,181,0.0,3.0,76,0.00,,,0.00,WUHU216DAVISVP2,2013-02-23 23:07:00,
2013-02-23 17:12:00,19.7,13.4,29.93,South,180,0.0,0.0,76,0.00,,,0.00,WUHU216DAVISVP2,2013-02-23 23:12:00,
2013-02-23 17:17:00,19.3,13.3,29.93,South,180,0.0,0.0,77,0.00,,,0.00,WUHU216DAVISVP2,2013-02-23 23:17:00,
2013-02-23 17:22:00,19.0,13.0,29.93,South,180,0.0,0.0,77,0.00,,,0.00,WUHU216DAVISVP2,2013-02-23 23:22:00,
2013-02-23 17:27:00,18.8,13.1,29.93,South,180,0.0,0.0,78,0.00,,,0.00,WUHU216DAVISVP2,2013-02-23 23:27:00,
2013-02-23 17:32:00,18.7,13.0,29.94,South,180,0.0,0.0,78,0.00,,,0.00,WUHU216DAVISVP2,2013-02-23 23:32:00,
2013-02-23 17:37:00,18.6,12.9,29.94,South,180,0.0,0.0,78,0.00,,,0.00,WUHU216DAVISVP2,2013-02-23 23:37:00,
2013-02-23 17:42:00,18.5,12.8,29.94,South,180,0.0,0.0,78,0.00,,,0.00,WUHU216DAVISVP2,2013-02-23 23:42:00,
2013-02-23 17:47:00,18.3,12.6,29.94,South,181,0.0,0.0,78,0.00,,,0.00,WUHU216DAVISVP2,2013-02-23 23:47:00,
2013-02-23 17:52:00,18.2,12.5,29.94,South,181,0.0,0.0,78,0.00,,,0.00,WUHU216DAVISVP2,2013-02-23 23:52:00,
2013-02-23 17:57:00,18.1,12.7,29.94,South,180,0.0,0.0,79,0.00,,,0.00,WUHU216DAVISVP2,2013-02-23 23:57:00,
2013-02-23 18:02:00,18.0,12.6,29.94,South,181,0.0,0.0,79,0.00,,,0.00,WUHU216DAVISVP2,2013-02-24 00:02:00,
2013-02-23 18:07:00,17.8,12.4,29.94,South,181,0.0,0.0,79,0.00,,,0.00,WUHU216DAVISVP2,2013-02-24 00:07:00,
2013-02-23 18:12:00,17.6,12.2,29.94,South,181,0.0,0.0,79,0.00,,,0.00,WUHU216DAVISVP2,2013-02-24 00:12:00,
2013-02-23 18:17:00,17.4,12.0,29.94,South,180,0.0,0.0,79,0.00,,,0.00,WUHU216DAVISVP2,2013-02-24 00:17:00,
2013-02-23 18:22:00,17.2,12.1,29.95,South,181,0.0,0.0,80,0.00,,,0.00,WUHU216DAVISVP2,2013-02-24 00:22:00,
2013-02-23 18:27:00,17.0,11.9,29.95,South,181,0.0,0.0,80,0.00,,,0.00,WUHU216DAVISVP2,2013-02-24 00:27:00,
2013-02-23 18:32:00,16.8,11.7,29.95,South,180,0.0,0.0,80,0.00,,,0.00,WUHU216DAVISVP2,2013-02-24 00:32:00,
2013-02-23 18:37:00,16.7,11.9,29.95,South,181,0.0,0.0,81,0.00,,,0.00,WUHU216DAVISVP2,2013-02-24 00:37:00,
2013-02-23 18:42:00,16.5,11.7,29.94,South,181,0.0,0.0,81,0.00,,,0.00,WUHU216DAVISVP2,2013-02-24 00:42:00,
2013-02-23 18:47:00,16.3,11.5,29.94,South,180,0.0,0.0,81,0.00,,,0.00,WUHU216DAVISVP2,2013-02-24 00:47:00,
2013-02-23 18:52:00,16.1,11.6,29.94,South,181,0.0,0.0,82,0.00,,,0.00,WUHU216DAVISVP2,2013-02-24 00:52:00,
2013-02-23 18:57:00,16.0,11.5,29.95,South,181,0.0,0.0,82,0.00,,,0.00,WUHU216DAVISVP2,2013-02-24 00:57:00,
2013-02-23 19:02:00,15.9,11.4,29.95,South,181,0.0,0.0,82,0.00,,,0.00,WUHU216DAVISVP2,2013-02-24 01:02:00,
2013-02-23 19:07:00,15.8,11.3,29.95,South,180,0.0,0.0,82,0.00,,,0.00,WUHU216DAVISVP2,2013-02-24 01:07:00,
2013-02-23 19:12:00,15.7,11.4,29.95,South,180,0.0,0.0,83,0.00,,,0.00,WUHU216DAVISVP2,2013-02-24 01:12:00,
2013-02-23 19:17:00,15.6,11.3,29.95,South,181,0.0,0.0,83,0.00,,,0.00,WUHU216DAVISVP2,2013-02-24 01:17:00,
2013-02-23 19:22:00,15.5,11.2,29.96,South,181,0.0,0.0,83,0.00,,,0.00,WUHU216DAVISVP2,2013-02-24 01:22:00,
2013-02-23 19:27:00,15.4,11.1,29.96,South,181,0.0,0.0,83,0.00,,,0.00,WUHU216DAVISVP2,2013-02-24 01:27:00,
2013-02-23 19:32:00,15.4,11.1,29.96,South,180,0.0,0.0,83,0.00,,,0.00,WUHU216DAVISVP2,2013-02-24 01:32:00,
2013-02-23 19:37:00,15.4,11.1,29.96,South,180,0.0,0.0,83,0.00,,,0.00,WUHU216DAVISVP2,2013-02-24 01:37:00,
2013-02-23 19:42:00,15.3,11.0,29.96,South,181,0.0,0.0,83,0.00,,,0.00,WUHU216DAVISVP2,2013-02-24 01:42:00,
2013-02-23 19:47:00,15.1,10.8,29.96,South,180,0.0,0.0,83,0.00,,,0.00,WUHU216DAVISVP2,2013-02-24 01:47:00,
2013-02-23 19:52:00,15.1,13.1,29.96,South,181,0.0,0.0,92,0.00,,,0.00,WUHU216DAVISVP2,2013-02-24 01:52:00,
2013-02-23 19:57:00,15.0,11.0,29.97,South,181,0.0,0.0,84,0.00,,,0.00,WUHU216DAVISVP2,2013-02-24 01:57:00,
2013-02-23 20:02:00,15.0,11.0,29.97,South,181,0.0,0.0,84,0.00,,,0.00,WUHU216DAVISVP2,2013-02-24 02:02:00,
2013-02-23 20:07:00,14.9,10.9,29.97,South,180,0.0,0.0,84,0.00,,,0.00,WUHU216DAVISVP2,2013-02-24 02:07:00,
2013-02-23 20:12:00,14.8,10.8,29.97,South,181,0.0,0.0,84,0.00,,,0.00,WUHU216DAVISVP2,2013-02-24 02:12:00,
2013-02-23 20:17:00,14.6,10.6,29.98,South,180,0.0,0.0,84,0.00,,,0.00,WUHU216DAVISVP2,2013-02-24 02:17:00,
2013-02-23 20:22:00,14.5,10.5,29.98,South,180,0.0,0.0,84,0.00,,,0.00,WUHU216DAVISVP2,2013-02-24 02:22:00,
2013-02-23 20:27:00,14.3,10.3,29.98,South,181,0.0,0.0,84,0.00,,,0.00,WUHU216DAVISVP2,2013-02-24 02:27:00,
2013-02-23 20:32:00,14.2,10.2,29.98,South,181,0.0,0.0,84,0.00,,,0.00,WUHU216DAVISVP2,2013-02-24 02:32:00,
2013-02-23 20:37:00,13.9,9.9,29.98,South,181,0.0,0.0,84,0.00,,,0.00,WUHU216DAVISVP2,2013-02-24 02:37:00,
2013-02-23 20:42:00,13.5,9.3,29.98,South,180,0.0,0.0,83,0.00,,,0.00,WUHU216DAVISVP2,2013-02-24 02:42:00,
2013-02-23 20:47:00,13.0,8.8,29.98,South,181,0.0,0.0,83,0.00,,,0.00,WUHU216DAVISVP2,2013-02-24 02:47:00,
2013-02-23 20:52:00,12.5,8.3,29.98,South,181,0.0,0.0,83,0.00,,,0.00,WUHU216DAVISVP2,2013-02-24 02:52:00,
2013-02-23 20:57:00,12.2,8.0,29.98,South,180,0.0,0.0,83,0.00,,,0.00,WUHU216DAVISVP2,2013-02-24 02:57:00,
2013-02-23 21:02:00,11.9,8.0,29.98,South,181,0.0,0.0,84,0.00,,,0.00,WUHU216DAVISVP2,2013-02-24 03:02:00,
2013-02-23 21:07:00,11.7,7.5,29.98,South,181,0.0,0.0,83,0.00,,,0.00,WUHU216DAVISVP2,2013-02-24 03:07:00,
2013-02-23 21:12:00,11.6,7.7,29.99,South,181,0.0,0.0,84,0.00,,,0.00,WUHU216DAVISVP2,2013-02-24 03:12:00,
2013-02-23 21:17:00,11.4,7.5,29.99,South,180,0.0,0.0,84,0.00,,,0.00,WUHU216DAVISVP2,2013-02-24 03:17:00,
2013-02-23 21:22:00,11.2,7.3,29.99,South,181,0.0,0.0,84,0.00,,,0.00,WUHU216DAVISVP2,2013-02-24 03:22:00,
2013-02-23 21:27:00,11.0,6.8,29.99,South,181,0.0,0.0,83,0.00,,,0.00,WUHU216DAVISVP2,2013-02-24 03:27:00,
2013-02-23 21:32:00,10.9,7.0,29.99,South,180,0.0,0.0,84,0.00,,,0.00,WUHU216DAVISVP2,2013-02-24 03:32:00,
2013-02-23 21:37:00,10.8,6.9,29.99,South,180,0.0,0.0,84,0.00,,,0.00,WUHU216DAVISVP2,2013-02-24 03:37:00,
2013-02-23 21:42:00,10.8,6.9,29.99,South,181,0.0,0.0,84,0.00,,,0.00,WUHU216DAVISVP2,2013-02-24 03:42:00,
2013-02-23 21:47:00,10.8,6.9,29.99,South,180,0.0,0.0,84,0.00,,,0.00,WUHU216DAVISVP2,2013-02-24 03:47:00,
2013-02-23 21:52:00,10.8,6.9,30.00,South,181,0.0,0.0,84,0.00,,,0.00,WUHU216DAVISVP2,2013-02-24 03:52:00,
2013-02-23 21:57:00,10.8,6.9,30.00,South,181,0.0,0.0,84,0.00,,,0.00,WUHU216DAVISVP2,2013-02-24 03:57:00,
2013-02-23 22:02:00,10.7,6.8,30.00,South,180,0.0,0.0,84,0.00,,,0.00,WUHU216DAVISVP2,2013-02-24 04:02:00,
2013-02-23 22:07:00,10.5,6.6,30.00,South,180,0.0,0.0,84,0.00,,,0.00,WUHU216DAVISVP2,2013-02-24 04:07:00,
2013-02-23 22:12:00,10.3,6.1,30.00,South,181,0.0,0.0,83,0.00,,,0.00,WUHU216DAVISVP2,2013-02-24 04:12:00,
2013-02-23 22:17:00,10.1,5.9,30.00,South,181,0.0,0.0,83,0.00,,,0.00,WUHU216DAVISVP2,2013-02-24 04:17:00,
2013-02-23 22:22:00,9.9,5.8,30.00,South,180,0.0,0.0,83,0.00,,,0.00,WUHU216DAVISVP2,2013-02-24 04:22:00,
2013-02-23 22:27:00,9.9,5.8,30.00,South,180,0.0,0.0,83,0.00,,,0.00,WUHU216DAVISVP2,2013-02-24 04:27:00,
2013-02-23 22:32:00,9.6,5.5,30.00,South,181,0.0,0.0,83,0.00,,,0.00,WUHU216DAVISVP2,2013-02-24 04:32:00,
2013-02-23 22:37:00,9.5,5.4,30.00,South,180,0.0,0.0,83,0.00,,,0.00,WUHU216DAVISVP2,2013-02-24 04:37:00,
2013-02-23 22:42:00,9.2,5.1,30.00,South,180,0.0,0.0,83,0.00,,,0.00,WUHU216DAVISVP2,2013-02-24 04:42:00,
2013-02-23 22:47:00,9.0,4.9,30.00,South,180,0.0,0.0,83,0.00,,,0.00,WUHU216DAVISVP2,2013-02-24 04:47:00,
2013-02-23 22:52:00,8.9,4.8,30.00,South,181,0.0,0.0,83,0.00,,,0.00,WUHU216DAVISVP2,2013-02-24 04:52:00,
2013-02-23 22:57:00,8.7,4.6,30.00,South,180,0.0,0.0,83,0.00,,,0.00,WUHU216DAVISVP2,2013-02-24 04:57:00,
2013-02-23 23:00:00,8.6,4.5,30.00,South,181,0.0,0.0,83,0.00,,,0.00,WUHU216DAVISVP2,2013-02-24 05:00:00,
2013-02-23 23:05:00,8.5,4.4,30.00,South,181,0.0,0.0,83,0.00,,,0.00,WUHU216DAVISVP2,2013-02-24 05:05:00,
2013-02-23 23:10:00,8.3,4.2,30.01,South,180,0.0,0.0,83,0.00,,,0.00,WUHU216DAVISVP2,2013-02-24 05:10:00,
2013-02-23 23:15:00,8.2,4.1,30.01,South,180,0.0,0.0,83,0.00,,,0.00,WUHU216DAVISVP2,2013-02-24 05:15:00,
2013-02-23 23:20:00,8.1,4.0,30.01,South,180,0.0,0.0,83,0.00,,,0.00,WUHU216DAVISVP2,2013-02-24 05:20:00,
2013-02-23 23:25:00,8.0,3.9,30.01,South,181,0.0,0.0,83,0.00,,,0.00,WUHU216DAVISVP2,2013-02-24 05:25:00,
2013-02-23 23:30:00,7.9,3.8,30.01,South,181,0.0,0.0,83,0.00,,,0.00,WUHU216DAVISVP2,2013-02-24 05:30:00,
2013-02-23 23:35:00,7.8,3.7,30.01,South,180,0.0,0.0,83,0.00,,,0.00,WUHU216DAVISVP2,2013-02-24 05:35:00,
2013-02-23 23:40:00,7.7,3.6,30.01,South,180,0.0,0.0,83,0.00,,,0.00,WUHU216DAVISVP2,2013-02-24 05:40:00,
2013-02-23 23:45:00,7.5,3.1,30.01,South,181,0.0,0.0,82,0.00,,,0.00,WUHU216DAVISVP2,2013-02-24 05:45:00,
2013-02-23 23:50:00,7.4,3.3,30.02,South,181,0.0,0.0,83,0.00,,,0.00,WUHU216DAVISVP2,2013-02-24 05:50:00,
2013-02-23 23:55:00,7.3,3.2,30.02,South,181,0.0,0.0,83,0.00,,,0.00,WUHU216DAVISVP2,2013-02-24 05:55:00,